Regional Weather Roundup
Issued by NWS Sioux Falls, SD

Home | Current Version | Previous Version | Graphics & Text | Print | Product List | Glossary On
Versions: 1 2 3 4 5 6 7 8 9 10 11 12 13 14 15 16 17 18 19 20 21 22 23 24 25 26 27 28 29 30 31 32 33 34 35 36 37 38 39 40 41 42 43 44 45 46 47 48 49 50
000
ASUS43 KFSD 251102
RWRFSD

WEATHER ROUNDUP FOR SE SOUTH DAKOTA/SW MINNESOTA/NW IOWA
NATIONAL WEATHER SERVICE SIOUX FALLS SD
600 AM CDT TUE APR 25 2017

NOTE: "FAIR" INDICATES FEW OR NO CLOUDS BELOW 12,000 FEET WITH NO
SIGNIFICANT WEATHER AND OR OBSTRUCTIONS TO VISIBILITY.


SDZ038>040-050-052>070-251200-
SOUTHEAST SOUTH DAKOTA

CITY           SKY/WX    TMP DP  RH WIND       PRES   REMARKS
BROOKINGS      CLOUDY    37  35  92 N17       29.57S
CHAMBERLAIN    CLOUDY    38  36  90 NW14      29.63F
HURON          CLOUDY    35  34  96 N17       29.63F WCI  25
MADISON        CLOUDY    37  37 100 N13       29.58S
MITCHELL       CLOUDY    38  36  92 N15       29.62F
SIOUX FALLS    CLOUDY    41  39  93 N15       29.57S
WINNER         CLOUDY    38  34  85 N14       29.65R
YANKTON        CLOUDY    39  36  87 N20       29.55F
$$

MNZ071-072-080-081-089-090-097-098-251200-
SOUTHWEST MINNESOTA

CITY           SKY/WX    TMP DP  RH WIND       PRES   REMARKS
FAIRMONT       CLOUDY    43  41  93 NW15      29.53S
JACKSON        FOG       39  37  93 NW13      29.54R VSB 1
LUVERNE        CLOUDY    39  36  87 N10G17    29.56S
MARSHALL       CLOUDY    37  36  96 N18       29.57S FOG
MONTEVIDEO     CLOUDY    37  37 100 N15G21    29.57R FOG
PIPESTONE      CLOUDY    39  36  87 N12G18    29.54F FOG
REDWOOD FALLS  CLOUDY    39  37  92 NW12G18   29.55R FOG
TRACY          FOG       38  38  99 NW13      29.57S VSB 1
WINDOM         MIX PCPN  39  39 100 NW13G21   29.54F VSB 1/2
WORTHINGTON    CLOUDY    38  38 100 NW15      29.55S FOG
$$

IAZ001>003-012>014-020>022-031-032-NEZ013-014-SDZ071-251200-
NORTHWEST IOWA

CITY           SKY/WX    TMP DP  RH WIND       PRES   REMARKS
CHEROKEE       CLOUDY    44  42  94 N7        29.52S
DENISON        CLOUDY    46  43  87 CALM      29.53R
ESTHERVILLE    CLOUDY    41  41 100 N18       29.52S
LE MARS        CLOUDY    43  41  93 N12G18    29.55R
ORANGE CITY    CLOUDY    43  41  93 N15       29.53F
SHELDON        CLOUDY    43  41  93 N15       29.52F
SIOUX CITY     CLOUDY    42  38  85 N18       29.52F
SPENCER        CLOUDY    42  40  92 N16       29.52F
STORM LAKE     CLOUDY    45  43  93 NW9       29.51R
$$

ABBREVIATIONS USED IN REMARKS
   TC - TEMPERATURE IN CELSIUS
  WCI - WIND CHILL INDEX
   HX - HEAT INDEX
  VSB - VISIBILITY





USA.gov is the U.S. government's official web portal to all federal, state and local government web resources and services.